sat.trackr.live / text

‹ back to catalog

STARLINK-32094

NORAD 59696 · 2024-086Q

PAYLOAD ACTIVE UNKNOWN

§ Identity

Operator
Country
US
Launch date
2024-05-08
Launch site
AFETR
Launch vehicle
Mass (kg)
RCS (m²)

Purposes: comms

External: N2YO · Heavens-Above · Gunter

§ Orbital elements

Epoch: 2026-05-24T23:07:09.584832Z

Period
94.27 min
Inclination
43.0031°
Eccentricity
0.0001828
Mean motion
15.27588306 rev/d
Perigee alt
481.8 km
Apogee alt
484.3 km
Semi-major
6,861.2 km
B*
1.0370e-4
RAAN
349.4494°
Arg perigee
276.4716°
Mean anomaly
83.5928°
Rev number
11,577

§ Raw data

STARLINK-320941 59696U 24086Q   26144.96330538  .00002593  00000+0  10370-3 0  99912 59696  43.0031 349.4494 0001828 276.4716  83.5928 15.27588306115778

JSON: /api/v1/satellites/59696 · /tle

For live sub-satellite position, see the globe view (requires WebGL).

§ Visibility from observer

Set your observer location to see the next 7 days of passes ≥ 10°. The values pass through the URL so the page stays shareable.

No JS? Fill the form by hand. The geolocation button needs JavaScript.